www.pogodaiklimat.ru

Архив погоды в Бресте (Брестская область, Беларусь)

Время
(UTC), дата
18 24.11
21 24.11
00 25.11
03 25.11
06 25.11
09 25.11
12 25.11
15 25.11
18 25.11
21 25.11
00 26.11
03 26.11
06 26.11
09 26.11
12 26.11
15 26.11
18 26.11
21 26.11
00 27.11
03 27.11
06 27.11
09 27.11
12 27.11
15 27.11
18 27.11
21 27.11
00 28.11
03 28.11
06 28.11
09 28.11
12 28.11
15 28.11
18 28.11
21 28.11
00 29.11
03 29.11
06 29.11
09 29.11
12 29.11
15 29.11
18 29.11
21 29.11
00 30.11
03 30.11
06 30.11
09 30.11
12 30.11
15 30.11
18 30.11
21 30.11
00 1.12
03 1.12
06 1.12
09 1.12
12 1.12
15 1.12
Ветер
(напр.,м/с)
Видим. Явления Облачность Т
(С)
Тd
(С)
f
(%)
Тe
(С)
Тes
(С)
Комфортность P
(гПа)
Po
(гПа)
Тmin
(С)
Tmax
(С)
R
(мм)
R24
(мм)
S
(см)
ЮЗ 3 8000 м дымка {дождь} 10/10 500 м
[Sc]
+4.5 +3.6 94 +1 +1 по сезону 1021.6 1003.5 +5.5 0.0
ЮЗ 2 8000 м в посл. час дождь 10/10 360 м
[Sc]
+4.5 +3.6 94 +2 +2 по сезону 1021.1 1003.0
ЮЗ 2 8000 м дымка {дождь} 9/9 210 м
[Sc]
+4.1 +3.4 95 +1 +1 по сезону 1020.3 1002.2
ЮЗ 2 8000 м дымка 10/10 1110 м
[Sc]
+3.9 +3.0 94 +1 +1 по сезону 1019.2 1001.1
Ю 2 15 км слаб. дождь 10/10 1000 м
[Sc]
+3.5 +1.7 88 +1 +1 по сезону 1017.9 999.8 +3.5 0.0
Ю 3 12 км 1/1 600 м
[Sc]
+3.8 +0.8 81 0 +1 по сезону 1016.0 997.9
ЮЗ 3 30 км ясно +5.3 -0.1 68 +2 +3 по сезону 1012.6 994.7
Ю 2 30 км 1/0
[Ac trans]
+4.1 -0.1 74 +2 +2 по сезону 1009.9 992.0
Ю 2 15 км ясно +2.0 -0.1 86 -1 -1 по сезону 1008.4 990.4 +5.8
ЮЗ 2 15 км 10/10 1260 м
[Sc]
+2.8 +0.7 86 -0 -0 по сезону 1007.0 989.0
ЮЗ 2 12 км 10/10 870 м
[Sc]
+3.6 +1.3 85 +1 +1 по сезону 1006.1 988.2
ЮЗ 3 10 км 10/10 660 м
[Sc]
+3.7 0.0 77 0 0 по сезону 1005.8 987.9
ЮЗ 3 10 км 10/10 1080 м
[Sc]
+3.2 -0.3 78 -1 -1 по сезону 1005.7 987.8 +1.7
ЮЗ 3 10 км 9/0
[Ac trans]
+3.9 -0.1 75 0 +1 по сезону 1005.3 987.4
штиль 0 10 км 10/10 870 м
[Sc]
+4.3 +0.1 74 +4 +4 тепло 1003.6 985.8
СВ 1 6000 м слаб. дождь 10/10 900 м
[Ns]
+3.1 +1.8 91 +1 +1 по сезону 1001.2 983.4
В 3 4200 м дымка {дождь} 9/9 1500 м
[Sc]
+3.2 +2.6 96 -1 -1 по сезону 998.5 980.7 +4.4 0.4
В 4 8000 м слаб. дождь 10/0
[As op]
+3.6 +2.7 94 -1 -1 по сезону 994.9 977.2
В 3 6000 м слаб. дождь 10/10 500 м
[Ns]
+3.1 +2.5 96 -1 -1 по сезону 992.6 974.9
В 2 6000 м слаб. дождь 10/10 180 м
[Frnb Ns]
+3.1 +2.8 98 -0 -0 по сезону 989.8 972.2
ЮЗ 2 5000 м слаб. дождь 10/10 180 м
[Frnb Ns]
+3.6 +3.5 99 0 0 по сезону 989.9 972.3 +2.9 3
З 5-10
{10}
12 км слаб. дождь 10/10 300 м
[Frnb Ns]
+3.1 +2.2 94 -2 -2 по сезону 992.7 975.0
З 4-10
{11}
20 км {дождь} 10/10 300 м
[Sc]
+2.1 +0.9 92 -3 -3 по сезону 995.3 977.5
ЮЗ 3
{12}
30 км 10/10 450 м
[Sc]
+2.3 +0.4 87 -2 -2 по сезону 997.6 979.8
З 4 15 км 10/10 480 м
[Sc]
+2.1 -0.5 83 -3 -3 по сезону 999.6 981.7 +3.9 0.4
ЮЗ 1 15 км 9/0
[Ac trans]
+1.6 -0.5 86 -0 -0 по сезону 1000.5 982.6
штиль 0 10 км 9/0
[Ac trans]
+1.1 +0.1 93 -0 -0 по сезону 1000.6 982.6
ЮВ 1 10 км ясно +0.9 +0.2 95 -1 -1 по сезону 1000.4 982.4
штиль 0 6000 м дымка 9/9 1380 м
[Sc]
+0.4 +0.1 98 -1 -1 по сезону 1001.2 983.2 -0.1
В 1 8000 м дымка 9/0
[Ac trans]
+1.2 +0.6 96 -1 -0 по сезону 1001.1 983.1
В 1 10 км 9/9 840 м
[Sc]
+2.8 +1.8 93 +1 +1 по сезону 999.6 981.8
В 1 8000 м дымка 10/10 240 м
[St]
+3.0 +2.3 95 +1 +1 по сезону 998.7 980.9
В 2 700 м туман ?/? +2.8 +2.8 100 -1 -1 по сезону 998.0 980.2 +3.2
В 4 1200 м в посл. час туман 10/10 60 м
[St]
+3.1 +2.8 98 -2 -2 по сезону 995.4 977.7
В 2 3100 м слаб. дождь {туман} 10/10 90 м
[Frnb Ns]
+3.1 +2.8 98 -0 -0 по сезону 993.8 976.1
В 4 8000 м слаб. ливневой дождь 10/10 90 м
[Cb cap]
+2.8 +2.5 98 -2 -2 по сезону 990.6 972.9
штиль 0 4600 м в посл. час ливневой дождь 10/10 120 м
[Frnb]
+3.1 +2.8 98 +2 +2 тепло 990.2 972.6 +2.8 10
З 3 1600 м дымка {ливн. дождь} 10/10 60 м
[St]
+3.5 +3.3 99 -1 -1 по сезону 990.4 972.8
З 5
{11}
6000 м слаб. морось {ливн. дождь} 10/10 150 м
[St]
+1.7 +1.4 98 -4 -4 по сезону 990.7 973.0
З 4-10
{12}
15 км слаб. ливневой дождь со снегом {морось} 10/10 300 м
[Cb cap]
+1.0 +0.1 94 -4 -4 по сезону 991.1 973.3
З 5-12
{10}
15 км слаб. ливневой снег {морось} 10/10 300 м
[Cb cap]
+0.9 -0.3 92 -5 -5 прохладно 991.8 974.0 +3.7 0.4
СЗ 6-13
{12}
30 км слаб. снег {ливн. снег} 10/10 330 м
[St]
+1.0 -0.5 90 -5 -5 по сезону 993.1 975.3
З 5-10
{15}
30 км в посл. час ливневой снег 10/10 630 м
[Sc]
+1.2 -1.4 83 -5 -5 по сезону 995.0 977.1
З 6-12
{12}
12 км слаб. ливневой дождь 10/10 870 м
[Sc]
+1.5 -0.6 86 -5 -5 по сезону 996.8 978.9
З 5-10
{12}
20 км в посл. час ливневой снег 10/10 800 м
[Sc]
+1.1 -0.5 89 -5 -5 по сезону 998.6 980.7 +0.9 0.1
З 5-12
{11}
30 км 8/8 720 м
[Sc diur, vesp]
+0.9 -2.9 76 -5 -5 по сезону 1000.0 982.0
З 4
{12}
30 км в посл. час крупа 9/9 720 м
[Sc]
+1.2 -1.9 80 -4 -4 по сезону 997.6 979.7
ЮЗ 3
{11}
15 км слаб. снег 10/10 630 м
[Ns]
+0.5 -0.8 91 -4 -4 по сезону 994.9 977.0
ЮЗ 3 1500 м слаб. снег 10/10 210 м
[Frnb Ns]
+0.1 -0.2 98 -5 -5 по сезону 991.3 973.4 +1.8 0.4
ЮЗ 2 1800 м снег 10/10 180 м
[Frnb Ns]
+0.3 0.0 98 -4 -4 по сезону 990.0 972.2
З 2 4700 м слаб. снег 10/10 150 м
[Frnb Ns]
+0.5 +0.2 98 -3 -3 по сезону 992.0 974.1
СЗ 3 10 км {снег} 10/10 450 м
[Sc]
+0.6 +0.3 98 -4 -4 по сезону 996.8 978.9
СЗ 2 15 км {снег} 4/3 600 м
[Sc Ac trans]
-0.9 -1.9 93 -5 -5 по сезону 1001.3 983.2 -0.9 4 2
З 3 20 км 6/6 600 м
[Sc]
-0.3 -1.7 90 -5 -5 по сезону 1003.0 984.9
ЮЗ 2 30 км 8/3 1000 м
[Cu hum Ci fib]
+1.5 -2.1 77 -2 -1 по сезону 1002.7 984.7
Ю 2 20 км 9/0
[Ac trans]
+0.8 -1.8 83 -3 -3 по сезону 1001.3 983.3
Местоположение метеостанции Брест (Брестская область, Беларусь): широта 52.12 долгота 23.69 высота над уровнем моря 146 м.
В архиве по умолчанию представлена погода в Бресте за последнюю неделю. Архивные данные за месяц целиком и за предыдущие месяцы, начиная с января 2011 года, Вы можете получить, выбрав интересующий диапазон дат из раскрывающегося списка и нажав кнопку "Найти!".
*Определитесь, кто Вы:
Внимание! Время в таблицах - всемирное. Для получения местного времени необходимо прибавить поправку, которая равна 3 ч.
Смотрите также архив погоды в соседних городах и на ближайших метеорологических станциях:
Партнеры нашего сайта:      
Пояснения к столбцам:
  • Ветер - указаны скорость ветра в м/с - средняя за 10 мин, порывы в срок и между сроками (в фигурных скобках) и направление, откуда дует ветер: С - северный,
  • СВ - северо-восточный, В - восточный, ЮВ - юго-восточный, Ю - южный, ЮЗ - юго-западный, З - западный, СЗ - северо-западный.
  • Видимость - горизонтальная дальность видимости в метрах или километрах. При видимости от 1 до 10 км при отсутствии осадков обычно наблюдается дымка, при ухудшении видимости до 1 км и менее - туман. В сухую погоду видимость может ухудшаться дымом, пылью или мглою.
  • Явления - указаны атмосферные явления, наблюдавшиеся в срок или в последний час перед сроком; фигурными скобками обозначены явления, наблюдавшиеся между сроками (за 1-3 часа до срока); квадратными скобками обозначены град или гололедные отложения с указанием их диаметра в мм.
  • Облачность - указаны через наклонную черту общая и нижняя облачность в баллах и высота нижней границы облаков в метрах; квадратными скобками обозначены формы облаков: Ci - перистые, Cs - перисто-слоистые, Cc - перисто-кучевые, Ac - высококучевые, As - высокослоистые, Sc - слоисто-кучевые, Ns - слоисто-дождевые, Cu - кучевые, Cb - кучево-дождевые. Подробнее классификацию облаков см. в Атласе облаков (PDF).
  • T - Температура воздуха - температура, измеренная на высоте 2 м над землей.
  • Td - Температура точки росы - температура, при понижении до которой содержащийся в воздухе водяной пар достигнет насыщения.
  • f - Относительная влажность воздуха - влажноcть воздуха, измеренная на высоте 2 м над землей.
  • Te - Эффективная температура - температура, которую ощущает одетый по сезону человек в тени. Характеристика душности погоды. При расчете учитывается влияние влажности воздуха и скорости ветра на теплоощущения человека.
  • Tes - Эффективная температура на солнце - температура, которую ощущает человек, с поправкой на солнечный нагрев. Характеристика знойности погоды. Зависит от высоты солнца над горизонтом, облачности и скорости ветра. Ночью, в пасмурную погоду, а также при ветре 12 м/с и более поправка равна нулю.
  • P - Атмосферное давление - приведенное к уровню моря атмосферное давление.
  • Po - Атмосферное давление - измеренное на уровне метеостанции атмосферное давление.
  • Tmin - Минимальная температура - минимум температуры воздуха на высоте 2 м над землей.
  • Tmax - Максимальная температура - максимум температуры воздуха на высоте 2 м над землей.
  • R - Количество осадков - Количество выпавших осадков за период времени, мм. При наведении курсора мыши на число - период времени, за который выпало указанное количество осадков.
  • R24 - Количество осадков - Количество выпавших осадков за 24 часа, мм.
  • S - Снежный покров - Высота снежного покрова, см. При наведении курсора мыши на число - состояние снежного покрова и степень покрытия местности в баллах.